Weather reports worldwide

Advertisment
Grosseto, Italy (16206): temperature & dewpoint: 08.07.2020 12:00:00 - 14.07.2020 12:00:00 (CEST)Grosseto, Italy (16206): wind speed: 08.07.2020 12:00:00 - 14.07.2020 12:00:00 (CEST)Grosseto, Italy (16206): wind direction: 08.07.2020 12:00:00 - 14.07.2020 12:00:00 (CEST)Grosseto, Italy (16206): reduced air pressure: 08.07.2020 12:00:00 - 14.07.2020 12:00:00 (CEST)Grosseto, Italy (16206): visibility: 08.07.2020 12:00:00 - 14.07.2020 12:00:00 (CEST)
Date & Time tt [°C] td [°C] ff [km/h] ff [kn] dd ppp [hPa] vv [km]
14.07.2020 12:00:00 - - - - - - -
14.07.2020 11:00:00 26,4 10,1 24 13 N 1013,7 40
14.07.2020 10:00:00 25,2 9,5 26 14 NNE 1013,7 10
14.07.2020 09:00:00 23,4 9,8 29 16 NNE 1013,8 50
14.07.2020 08:00:00 22,0 8,5 22 12 NNE 1013,8 50
14.07.2020 07:00:00 19,0 9,5 9 5 NNE 1013,8 50
14.07.2020 06:00:00 17,2 7,3 8 4 N 1013,8 50
14.07.2020 05:00:00 20,0 7,1 16 9 N 1013,8 40
14.07.2020 04:00:00 19,6 6,4 21 11 N 1013,8 50
14.07.2020 03:00:00 19,8 5,5 15 8 NNE 1014,5 30
14.07.2020 02:00:00 21,2 4,3 11 6 NE 1014,6 30
14.07.2020 01:00:00 22,0 5,0 16 9 NNE 1014,5 50
14.07.2020 00:00:00 23,0 3,5 22 12 NNE 1014,5 40
13.07.2020 23:00:00 23,2 6,0 18 10 NNE 1014,4 50
13.07.2020 22:00:00 25,8 7,4 21 11 NNE 1014,0 50
13.07.2020 21:00:00 27,2 6,6 18 10 NE 1013,4 50
13.07.2020 20:00:00 29,8 7,1 22 12 NE 1013,1 50
13.07.2020 19:00:00 31,0 7,5 22 12 NNE 1013,1 50
13.07.2020 18:00:00 31,2 7,0 18 10 NE 1013,7 50
13.07.2020 17:00:00 31,8 6,8 21 11 NNE 1013,8 50
13.07.2020 16:00:00 32,0 5,5 18 10 NNE 1014,6 50
13.07.2020 15:00:00 31,4 5,8 18 10 ENE 1015,0 50
13.07.2020 14:00:00 32,0 6,2 24 13 NNE 1015,4 40
13.07.2020 13:00:00 31,4 7,1 26 14 NE 1015,8 50
13.07.2020 12:00:00 30,2 6,1 31 17 NE 1016,7 50
13.07.2020 11:00:00 29,8 6,5 28 15 ENE 1016,7 50
13.07.2020 10:00:00 26,8 6,8 26 14 NE 1016,8 40
13.07.2020 09:00:00 25,4 6,6 16 9 NNE 1017,0 40
13.07.2020 08:00:00 22,8 6,5 15 8 NNE 1017,0 35
13.07.2020 07:00:00 21,6 7,1 21 11 N 1016,9 35
13.07.2020 06:00:00 21,2 8,1 15 8 N 1016,8 25
13.07.2020 05:00:00 21,4 8,3 18 10 N 1016,8 15
13.07.2020 04:00:00 22,0 8,2 18 10 N 1016,9 15
13.07.2020 03:00:00 22,8 8,1 21 11 N 1016,9 15
13.07.2020 02:00:00 23,0 7,5 21 11 N 1017,0 15
13.07.2020 01:00:00 23,6 7,7 18 10 N 1017,0 15
13.07.2020 00:00:00 24,4 8,4 28 15 N 1016,9 15
12.07.2020 23:00:00 25,0 8,9 24 13 N 1016,6 15
12.07.2020 22:00:00 26,2 10,4 21 11 NNE 1016,3 15
12.07.2020 21:00:00 28,0 11,5 26 14 NE 1015,7 25
12.07.2020 20:00:00 30,2 13,5 28 15 NE 1015,3 35
12.07.2020 19:00:00 32,0 15,1 26 14 NE 1014,8 35
12.07.2020 18:00:00 30,2 20,2 16 9 SSW 1014,9 35
12.07.2020 17:00:00 31,8 19,1 21 11 SW 1015,1 35
12.07.2020 16:00:00 32,4 17,8 22 12 SSW 1015,3 40
12.07.2020 15:00:00 31,8 16,1 21 11 SW 1015,5 40
12.07.2020 14:00:00 31,6 16,7 22 12 SW 1015,7 35
12.07.2020 13:00:00 32,6 16,0 9 5 N 1015,7 30
12.07.2020 12:00:00 32,0 14,2 8 4 NNE 1015,7 30
12.07.2020 11:00:00 30,4 14,5 11 6 NE 1015,7 30
12.07.2020 10:00:00 29,2 15,4 16 9 NNE 1015,7 30
12.07.2020 09:00:00 25,4 16,5 4 2 N 1015,7 15
12.07.2020 08:00:00 23,4 16,9 4 2 N 1015,3 12
12.07.2020 07:00:00 20,6 16,6 5 3 NE 1015,0 15
12.07.2020 06:00:00 19,4 15,7 5 3 NNE 1014,8 30
12.07.2020 05:00:00 19,4 15,7 8 4 N 1014,9 20
12.07.2020 04:00:00 21,2 18,0 8 4 N 1014,9 20
12.07.2020 03:00:00 21,4 18,4 4 2 N 1015,0 20
12.07.2020 02:00:00 21,8 18,8 2 1 NW 1015,0 15
12.07.2020 01:00:00 23,0 20,3 4 2 N 1015,3 20
12.07.2020 00:00:00 23,0 20,3 5 3 NNE 1015,4 10
11.07.2020 23:00:00 23,6 21,3 4 2 WNW 1015,2 20
11.07.2020 22:00:00 24,0 21,7 5 3 WSW 1015,0 20
11.07.2020 21:00:00 25,0 22,7 13 7 SW 1014,3 30
11.07.2020 20:00:00 26,4 21,8 16 9 SW 1013,9 50
11.07.2020 19:00:00 27,4 21,0 21 11 SW 1013,9 50
11.07.2020 18:00:00 29,2 20,1 21 11 SW 1013,7 50
11.07.2020 17:00:00 29,4 20,3 21 11 SSW 1013,9 50
11.07.2020 16:00:00 30,4 19,4 21 11 SSW 1014,3 50
11.07.2020 15:00:00 30,0 17,8 21 11 SW 1014,7 50
11.07.2020 14:00:00 29,8 17,3 18 10 SSW 1014,7 50
11.07.2020 13:00:00 29,8 15,1 18 10 SSW 1015,0 50
11.07.2020 12:00:00 28,6 16,2 21 11 SW 1014,9 40
11.07.2020 11:00:00 28,8 14,2 11 6 SW 1014,7 40
11.07.2020 10:00:00 27,0 15,1 4 2 N 1014,8 30
11.07.2020 09:00:00 25,0 15,9 9 5 E 1014,8 40
11.07.2020 08:00:00 22,2 15,8 8 4 ENE 1014,9 40
11.07.2020 07:00:00 19,0 13,2 9 5 NNE 1015,2 40
11.07.2020 06:00:00 18,0 15,1 4 2 NE 1015,3 40
11.07.2020 05:00:00 17,8 13,9 5 3 NNE 1014,7 30
11.07.2020 04:00:00 20,0 17,4 5 3 N 1014,9 30
11.07.2020 03:00:00 20,0 17,4 4 2 N 1015,3 30
11.07.2020 02:00:00 21,0 18,0 4 2 N 1015,4 30
11.07.2020 01:00:00 22,0 19,0 8 4 N 1015,4 30
11.07.2020 00:00:00 22,0 19,0 4 2 E 1014,8 30
10.07.2020 23:00:00 23,0 20,3 5 3 SSE 1014,5 30
10.07.2020 22:00:00 24,0 21,3 5 3 S 1014,4 40
10.07.2020 21:00:00 24,8 18,3 15 8 SSW 1013,8 40
10.07.2020 20:00:00 25,4 18,1 24 13 SW 1014,0 40
10.07.2020 19:00:00 31,4 13,2 21 11 SW 1013,3 40
10.07.2020 18:00:00 32,0 13,2 18 10 WSW 1013,4 40
10.07.2020 17:00:00 32,6 14,2 24 13 WSW 1013,7 40
10.07.2020 16:00:00 33,0 14,6 26 14 SW 1014,1 40
10.07.2020 15:00:00 33,2 14,3 29 16 WSW 1014,8 40
10.07.2020 14:00:00 33,8 13,3 26 14 SW 1015,0 40
10.07.2020 13:00:00 32,8 14,0 16 9 SW 1015,3 40
10.07.2020 12:00:00 31,4 13,2 16 9 WSW 1015,6 40
10.07.2020 11:00:00 30,0 13,3 8 4 N 1015,8 40
10.07.2020 10:00:00 28,0 15,0 5 3 N 1015,9 40
10.07.2020 09:00:00 24,4 15,6 4 2 N 1015,8 40
10.07.2020 08:00:00 21,8 15,6 4 2 N 1015,7 40
10.07.2020 07:00:00 19,0 16,0 5 3 NNE 1015,8 40
10.07.2020 06:00:00 17,0 15,2 4 2 NW 1015,9 40
10.07.2020 05:00:00 17,8 15,2 5 3 NNE 1015,9 30
10.07.2020 04:00:00 18,0 15,2 9 5 NE 1015,9 30
10.07.2020 03:00:00 18,2 15,8 4 2 N 1016,1 30
10.07.2020 02:00:00 19,4 17,0 4 2 N 1016,1 30
10.07.2020 01:00:00 21,0 17,2 4 2 N 1016,1 30
10.07.2020 00:00:00 21,0 17,4 5 3 ESE 1016,1 30
09.07.2020 23:00:00 22,0 17,8 5 3 ESE 1016,1 30
09.07.2020 22:00:00 23,8 16,3 8 4 ESE 1015,7 30
09.07.2020 21:00:00 27,0 17,8 13 7 WSW 1015,5 35
09.07.2020 20:00:00 28,0 15,7 18 10 WSW 1015,5 40
09.07.2020 19:00:00 29,8 12,7 21 11 WSW 1015,4 40
09.07.2020 18:00:00 30,8 13,1 22 12 WSW 1015,7 40
09.07.2020 17:00:00 31,4 14,5 28 15 WSW 1016,0 40
09.07.2020 16:00:00 32,2 14,4 28 15 WSW 1016,2 40
09.07.2020 15:00:00 33,4 15,9 24 13 SW 1016,5 40
09.07.2020 14:00:00 32,2 15,7 24 13 SW 1016,8 40
09.07.2020 13:00:00 29,8 13,5 24 13 SW 1017,0 40
09.07.2020 12:00:00 30,6 12,0 15 8 SW 1016,8 40
09.07.2020 11:00:00 29,8 11,8 4 2 N 1016,8 40
09.07.2020 10:00:00 27,4 14,1 4 2 - 1016,8 10
09.07.2020 09:00:00 24,6 15,0 4 2 N 1016,8 40
09.07.2020 08:00:00 20,8 14,7 4 2 N 1016,8 40
09.07.2020 07:00:00 17,2 14,1 8 4 N 1016,4 40
09.07.2020 06:00:00 18,0 13,3 8 4 N 1016,2 50
09.07.2020 05:00:00 16,4 13,1 5 3 N 1016,2 30
09.07.2020 04:00:00 18,0 14,1 5 3 NE 1016,2 30
09.07.2020 03:00:00 18,0 13,3 4 2 N 1016,2 30
09.07.2020 02:00:00 18,8 13,4 4 2 NNW 1016,0 30
09.07.2020 01:00:00 19,0 13,8 4 2 N 1015,8 30
09.07.2020 00:00:00 21,8 16,3 5 3 ENE 1015,6 30
08.07.2020 23:00:00 22,0 16,7 5 3 E 1015,6 30
08.07.2020 22:00:00 22,8 14,6 8 4 SE 1015,1 50
08.07.2020 21:00:00 25,0 12,9 8 4 S 1014,8 50
08.07.2020 20:00:00 28,0 12,0 15 8 SSW 1014,7 50
08.07.2020 19:00:00 27,6 15,0 18 10 SSW 1014,8 50
08.07.2020 18:00:00 27,4 13,7 21 11 WSW 1015,1 50
08.07.2020 17:00:00 28,8 16,0 22 12 SW 1015,3 50
08.07.2020 16:00:00 30,0 14,1 26 14 SW 1015,3 50
08.07.2020 15:00:00 29,0 13,7 24 13 SW 1015,3 50
08.07.2020 14:00:00 30,2 13,9 21 11 SW 1015,8 40
08.07.2020 13:00:00 30,4 13,7 9 5 SW 1016,0 30
08.07.2020 12:00:00 29,8 11,8 4 2 N 1016,1 30

tt = temperature
td = dewpoint
ff = wind speed
dd = wind direction
ppp = reduced air pressure
vv = visibility

Next stations